User: anonymous
Location: Unspecified
(0.0000°N, 0.0000°E)
Time: 11:50:22
(UTC+02:00)
Language:

Cosmos 2237 Rocket - Orbit

View from above orbital plane
View from above orbital plane
View from above satellite
View from above satellite

Ground track
Ground track

The orbit data is extracted from the following two-line orbital elements,

1 22566U 93016B   14233.87169753  .00000249  00000-0  15350-3 0  1285
2 22566 071.0078 069.4682 0012333 263.9143 096.0575 14.14847198105534
Epoch (UTC): 21 August 2014 20:55:14
Eccentricity: 0.0012333
inclination: 71.0078°
perigee height: 834 km
apogee height: 852 km
right ascension of ascending node: 69.4682°
argument of perigee: 263.9143°
revolutions per day: 14.14847198
mean anomaly at epoch: 96.0575°
orbit number at epoch: 10553

The dashed part of the orbit path shows where the satellite is in the earth's shadow,  

DLR